Date,TemperatureHighF,TemperatureAvgF,TemperatureLowF,DewpointHighF,DewpointAvgF,DewpointLowF,HumidityHigh,HumidityAvg,HumidityLow,PressureMaxIn,PressureMinIn,WindSpeedMaxMPH,WindSpeedAvgMPH,GustSpeedMaxMPH,PrecipitationSumIn
2014-1-1,63,49,40,43,37,32,84,65,46,30.20,30.11,2,0,0,0.00
2014-1-2,70,53,41,38,35,32,76,55,25,30.16,30.04,3,0,0,0.00
2014-1-3,67,52,43,43,38,34,82,62,38,30.05,29.94,2,0,0,0.00
2014-1-4,69,53,42,47,36,23,94,60,18,30.06,29.96,3,0,0,0.00
2014-1-5,69,59,47,27,14,6,43,19,12,30.18,30.05,11,2,0,0.00
2014-1-6,63,52,44,41,36,29,68,56,33,30.26,30.14,5,0,0,0.00
2014-1-7,63,52,45,51,41,35,93,68,41,30.20,30.12,1,0,0,0.00
2014-1-8,60,53,47,51,49,45,94,86,65,30.21,30.13,1,0,0,0.00
2014-1-9,64,52,47,51,45,38,95,78,51,30.25,30.17,2,0,0,0.00
2014-1-10,64,51,44,47,44,38,93,77,49,30.29,30.17,3,0,0,0.00
2014-1-11,55,50,45,52,47,43,95,90,79,30.27,30.14,4,0,0,0.00
2014-1-12,62,51,44,44,39,28,94,66,33,30.38,30.24,4,0,0,0.00
2014-1-13,68,56,45,36,34,30,66,45,25,30.42,30.32,11,2,0,0.00
2014-1-14,72,58,47,38,32,24,65,39,19,30.43,30.30,6,0,0,0.00
2014-1-15,74,63,47,40,27,14,74,29,11,30.31,30.18,15,2,0,0.00
2014-1-16,77,62,50,36,22,8,60,25,9,30.20,30.10,10,1,0,0.00
2014-1-17,74,55,43,36,30,24,61,40,24,30.17,30.09,3,0,0,0.00
2014-1-18,75,55,42,38,32,23,70,45,21,30.16,30.05,2,0,0,0.00
2014-1-19,73,54,43,38,32,29,69,46,24,30.12,30.04,3,0,0,0.00
2014-1-20,71,55,43,43,36,28,68,51,25,30.21,30.09,2,0,0,0.00
2014-1-21,73,54,41,38,29,21,72,42,15,30.25,30.14,3,0,0,0.00
2014-1-22,72,53,42,43,33,20,84,52,14,30.16,29.91,2,0,0,0.00
2014-1-23,70,57,43,44,31,20,88,45,17,30.00,29.85,16,2,0,0.00
2014-1-24,69,54,45,45,40,37,89,63,31,30.26,29.99,3,0,0,0.00
2014-1-25,72,57,46,45,39,29,87,56,28,30.26,30.11,4,0,0,0.00
2014-1-26,71,56,47,50,40,32,92,60,28,30.12,30.02,2,0,0,0.00
2014-1-27,62,53,48,50,48,45,91,83,57,30.18,30.06,1,0,0,0.00
2014-1-28,66,57,51,56,52,48,94,84,62,30.25,30.17,3,0,0,0.00
2014-1-29,59,56,53,58,55,51,96,94,90,30.20,29.98,1,0,0,0.03
2014-1-30,63,54,50,52,48,44,95,80,57,29.98,29.84,3,0,0,0.07
2014-1-31,63,52,44,46,37,27,89,62,27,30.07,29.89,3,0,0,0.00
2014-2-1,60,49,41,42,35,24,83,63,26,30.15,30.05,5,0,0,0.00
2014-2-2,52,48,45,43,40,34,85,75,56,30.05,29.83,11,2,0,0.18
2014-2-3,45,44,44,40,38,37,82,79,76,30.00,29.97,3,1,0,0.00
2014-2-6,50,48,49,49,42,-100,94,89,92,29.97,29.76,2,-40,0,0.00
2014-2-7,54,52,50,52,50,48,95,92,84,29.97,29.86,12,1,0,0.63
2014-2-8,58,55,52,57,54,51,97,96,94,30.03,29.91,11,2,0,1.73
2014-2-9,58,57,56,57,56,55,98,98,97,30.03,29.93,4,1,0,2.32
2014-2-10,58,54,50,57,53,49,98,96,87,30.16,29.98,2,0,0,0.02
2014-2-11,60,53,49,52,50,48,97,89,68,30.13,30.06,4,0,0,0.00
2014-2-12,60,53,48,51,49,47,96,86,67,30.16,30.06,4,0,0,0.00
2014-2-13,70,59,52,56,54,51,97,84,61,30.10,29.98,2,0,0,0.00
2014-2-14,67,57,53,58,54,51,98,90,67,30.05,29.93,1,0,0,0.02
2014-2-15,60,56,51,54,52,50,96,88,78,29.93,29.86,6,1,0,0.02
2014-2-16,66,55,45,55,43,27,98,71,23,30.09,29.91,2,0,0,0.03
2014-2-17,64,52,42,46,42,37,94,72,39,30.06,29.97,2,0,0,0.00
2014-2-18,65,53,46,50,47,44,93,79,52,30.07,29.97,1,0,0,0.00
2014-2-19,67,56,49,52,46,40,95,71,41,30.09,29.97,3,0,0,0.01
2014-2-20,71,55,44,45,40,33,87,62,25,30.09,29.99,3,0,0,0.00
2014-2-21,72,55,45,48,44,37,89,69,28,30.00,29.87,2,0,0,0.00
2014-2-22,69,54,45,51,47,43,96,80,42,29.89,29.82,4,0,0,0.00
2014-2-23,68,53,45,51,48,43,96,83,54,29.90,29.84,3,0,0,0.00
2014-2-24,75,56,45,54,48,44,98,78,39,29.88,29.80,2,0,0,0.00
2014-2-25,61,54,51,50,49,47,93,82,64,29.86,29.79,4,0,0,0.00
2014-2-26,59,56,51,56,52,47,96,87,74,29.83,29.54,4,1,0,0.90
2014-2-27,66,59,54,54,49,41,93,72,49,29.77,29.39,6,1,0,0.06
2014-2-28,61,56,53,55,51,40,95,84,47,29.39,29.24,7,1,0,1.11
2014-3-1,68,58,52,53,48,44,93,71,47,29.69,29.34,7,1,0,0.03
2014-3-2,58,55,50,56,51,48,95,87,78,30.04,29.68,8,1,0,0.05
2014-3-3,61,55,50,53,49,48,95,81,63,30.03,29.92,4,0,0,0.09
2014-3-4,65,57,54,55,53,50,95,86,69,30.00,29.92,3,0,0,0.05
2014-3-5,67,59,54,58,55,53,97,87,63,29.98,29.87,3,0,0,0.46
2014-3-6,66,57,50,58,53,48,98,87,61,30.08,29.92,4,0,0,0.01
2014-3-7,69,56,46,49,46,41,95,74,38,30.06,29.99,5,0,0,0.00
2014-3-8,73,59,48,53,49,39,97,73,47,30.09,29.98,2,0,0,0.00
2014-3-9,74,63,54,57,51,40,82,66,48,30.06,29.95,2,0,0,0.00
2014-3-10,72,61,53,55,48,39,93,64,37,30.11,29.98,3,0,0,0.03
2014-3-11,76,62,49,37,29,21,54,31,19,30.07,29.89,4,0,0,0.00
2014-3-12,77,64,55,33,26,19,37,24,16,30.00,29.89,8,1,0,0.00
2014-3-13,76,61,48,50,38,23,90,48,20,30.03,29.87,3,0,0,0.00
2014-3-14,71,59,51,51,49,47,92,71,44,30.20,30.03,2,0,0,0.00
2014-3-15,78,60,49,54,49,43,93,71,29,30.29,30.20,2,0,0,0.00
2014-3-16,72,57,47,54,49,45,94,76,48,30.29,30.19,2,0,0,0.00
2014-3-17,72,58,48,49,45,38,85,64,29,30.20,29.96,3,0,0,0.00
2014-3-18,74,58,44,44,35,24,83,47,17,29.96,29.89,5,0,0,0.00
2014-3-19,78,60,46,47,38,28,74,48,21,30.05,29.94,4,0,0,0.00
2014-3-20,71,58,50,51,46,38,89,66,40,30.04,29.93,2,0,0,0.00
2014-3-21,64,54,48,49,46,44,89,76,56,29.97,29.92,4,1,0,0.00
2014-3-22,66,54,45,49,46,43,95,77,54,30.10,29.97,4,0,0,0.00
2014-3-23,65,55,47,50,47,44,93,75,54,30.15,30.08,3,0,0,0.00
2014-3-24,71,55,46,53,48,43,96,79,46,30.16,30.02,3,0,0,0.00
2014-3-25,61,54,46,55,50,44,94,86,72,30.05,29.86,4,0,0,0.01
2014-3-26,63,55,51,54,50,48,95,84,59,29.97,29.79,9,1,0,0.56
2014-3-27,66,56,50,55,49,44,96,79,47,30.13,29.97,3,0,0,0.41
2014-3-28,71,60,54,53,50,47,91,71,46,30.18,30.11,5,1,0,0.01
2014-3-29,58,55,48,56,52,47,96,90,74,30.12,30.00,5,1,0,0.93
2014-3-30,62,53,45,52,46,42,98,79,52,30.12,30.03,4,0,0,0.00
2014-3-31,56,50,46,48,44,42,94,83,62,30.07,29.84,6,1,0,0.66
2014-4-1,56,48,44,48,44,42,94,87,60,29.93,29.82,6,1,0,0.87
2014-4-2,65,52,44,47,44,40,95,76,41,30.10,29.86,4,0,0,0.02
2014-4-3,64,54,46,48,46,44,94,75,53,30.11,30.04,2,0,0,0.00
2014-4-4,62,54,49,52,48,44,95,80,57,30.05,29.97,2,0,0,0.30
2014-4-5,70,56,45,50,46,43,96,73,42,30.19,30.04,4,0,0,0.00
2014-4-6,76,60,48,54,50,46,95,71,40,30.23,30.11,2,0,0,0.00
2014-4-7,86,66,52,57,51,44,92,64,23,30.14,30.06,3,0,0,0.00
2014-4-8,80,63,53,58,53,51,96,73,44,30.10,30.04,4,0,0,0.00
2014-4-9,65,56,52,53,51,50,95,83,62,30.09,30.00,2,0,0,0.00
2014-4-10,74,58,51,55,51,48,93,78,49,30.04,29.90,4,0,0,0.00
2014-4-11,64,56,52,52,50,48,94,82,64,29.95,29.87,3,0,0,0.00
2014-4-12,64,57,54,50,48,47,83,73,59,29.94,29.86,4,1,0,0.00
2014-4-13,70,59,53,52,50,46,91,72,53,30.05,29.94,3,0,0,0.00
2014-4-14,67,58,50,53,51,48,93,79,58,30.11,30.01,3,0,0,0.00
2014-4-15,68,59,53,53,50,47,87,74,55,30.08,29.91,3,0,0,0.00
2014-4-16,75,61,49,52,49,45,92,67,37,29.92,29.82,2,0,0,0.00
2014-4-17,72,61,50,54,50,49,95,70,48,29.86,29.79,4,0,0,0.00
2014-4-18,66,58,50,52,48,45,93,73,56,29.95,29.86,3,0,0,0.00
2014-4-19,67,57,50,54,49,45,89,76,57,30.11,29.95,5,1,0,0.00
2014-4-20,79,61,49,56,49,42,96,70,32,30.14,30.07,2,0,0,0.00
2014-4-21,65,56,48,51,48,45,92,75,52,30.08,29.97,3,0,0,0.00
2014-4-22,68,57,48,52,40,34,90,56,28,30.11,29.96,5,0,0,0.00
2014-4-23,72,57,44,49,41,34,83,58,33,30.14,30.08,5,0,0,0.00
2014-4-24,66,58,50,55,52,48,94,82,63,30.11,29.98,4,0,0,0.00
2014-4-25,57,53,47,55,50,44,95,89,70,29.98,29.78,4,0,0,0.12
2014-4-26,66,53,42,48,43,38,97,72,36,30.08,29.84,5,0,0,0.01
2014-4-27,65,56,50,51,48,43,91,73,55,30.13,30.01,3,0,0,0.02
2014-4-28,74,60,46,50,45,36,91,62,29,30.21,30.13,3,0,0,0.00
2014-4-29,85,68,52,53,46,39,81,49,24,30.19,30.05,2,0,0,0.00
2014-4-30,94,74,55,52,44,31,82,39,17,30.07,30.01,11,1,0,0.00
2014-5-1,88,72,57,52,44,37,72,41,19,30.09,30.02,2,0,0,0.00
2014-5-2,72,60,50,55,52,46,92,75,52,30.10,30.02,3,0,0,0.00
2014-5-3,68,59,54,53,51,48,91,75,54,30.05,29.99,10,1,0,0.00
2014-5-4,68,59,52,54,52,49,94,77,58,30.05,30.00,3,0,0,0.00
2014-5-5,68,59,52,52,48,40,87,68,41,30.05,29.95,6,1,0,0.00
2014-5-6,74,60,49,48,44,41,81,58,33,29.95,29.86,6,0,0,0.00
2014-5-7,68,58,49,49,46,42,89,68,40,29.99,29.88,6,1,0,0.00
2014-5-8,63,58,52,57,52,47,93,82,75,30.08,29.98,3,0,0,0.00
2014-5-9,72,61,53,55,50,42,94,70,39,30.15,30.08,5,0,0,0.00
2014-5-10,73,60,47,46,43,37,89,59,30,30.13,30.02,4,0,0,0.00
2014-5-11,83,66,53,46,37,27,69,38,13,30.09,30.02,11,1,0,0.00
2014-5-12,85,66,50,52,45,38,76,51,23,30.11,30.04,3,0,0,0.00
2014-5-13,93,71,54,48,43,37,71,41,16,30.13,30.06,3,0,0,0.00
2014-5-14,92,74,58,52,45,38,60,38,17,30.13,30.05,2,0,0,0.00
2014-5-15,81,68,56,54,47,32,83,49,30,30.10,30.05,2,0,0,0.00
2014-5-16,76,62,51,54,51,49,93,70,43,30.09,29.99,6,0,0,0.00
2014-5-17,66,59,54,53,52,48,88,76,60,30.00,29.95,11,1,0,0.00
2014-5-18,72,62,54,54,49,44,87,64,37,29.98,29.93,4,0,0,0.00
2014-5-19,68,60,53,53,50,47,86,71,50,29.96,29.91,5,1,0,0.00
2014-5-20,71,59,51,53,50,47,90,74,48,30.00,29.92,3,0,0,0.00
2014-5-21,70,61,55,54,52,50,86,73,55,29.97,29.93,4,1,0,0.00
2014-5-22,67,58,54,53,51,50,90,78,60,30.04,29.92,4,1,0,0.00
2014-5-23,68,59,53,54,52,50,92,77,60,30.03,29.94,4,0,0,0.00
2014-5-24,69,61,55,54,52,49,89,72,56,30.00,29.93,5,0,0,0.00
2014-5-25,82,66,52,53,50,46,89,61,30,29.97,29.91,2,0,0,0.00
2014-5-26,80,65,52,56,51,47,87,63,37,30.02,29.94,2,0,0,0.00
2014-5-27,77,63,52,51,47,41,87,59,31,30.05,29.97,8,1,0,0.00
2014-5-28,80,65,50,50,42,32,81,48,21,30.06,29.95,5,0,0,0.00
2014-5-29,78,63,52,54,48,43,83,60,30,29.96,29.92,3,0,0,0.00
2014-5-30,63,56,52,50,49,47,85,77,61,29.97,29.90,6,1,0,0.00
2014-5-31,67,58,53,52,50,49,90,77,58,29.97,29.92,3,0,0,0.00
2014-6-1,68,58,51,53,51,49,92,78,58,29.93,29.82,2,0,0,0.00
2014-6-2,66,57,52,52,50,48,91,78,60,29.91,29.83,4,0,0,0.00
2014-6-3,67,58,52,52,50,48,89,76,57,29.94,29.88,3,0,0,0.00
2014-6-4,68,58,52,53,51,49,91,78,57,29.90,29.85,3,0,0,0.00
2014-6-5,66,59,53,54,52,50,91,79,62,29.87,29.82,3,0,0,0.00
2014-6-6,67,58,53,53,52,50,92,79,60,29.85,29.81,5,0,0,0.00
2014-6-7,68,59,52,53,51,50,91,77,58,29.85,29.80,4,0,0,0.00
2014-6-8,84,66,52,59,54,50,96,69,38,29.82,29.73,3,0,0,0.00
2014-6-9,74,63,54,58,54,52,94,75,50,29.77,29.72,3,0,0,0.00
2014-6-10,64,59,56,56,54,54,94,85,71,29.84,29.73,5,1,0,0.00
2014-6-11,69,61,56,56,54,51,91,78,60,29.91,29.81,3,0,0,0.00
2014-6-12,69,59,53,53,51,49,89,75,56,29.98,29.91,6,1,0,0.00
2014-6-13,80,65,54,54,51,46,89,64,31,29.97,29.91,3,0,0,0.00
2014-6-14,78,63,52,56,51,48,91,67,39,29.94,29.83,4,0,0,0.00
2014-6-15,71,60,53,53,50,49,87,72,48,29.83,29.78,5,1,0,0.00
2014-6-16,67,59,53,50,49,47,86,71,54,29.90,29.82,7,2,0,0.00
2014-6-17,76,62,49,50,47,42,89,61,30,29.94,29.87,3,0,0,0.00
2014-6-18,81,64,51,55,49,43,91,64,28,29.95,29.90,3,0,0,0.00
2014-6-19,71,60,52,53,51,49,92,74,53,30.01,29.94,3,0,0,0.00
2014-6-20,77,64,53,56,52,49,93,68,43,29.98,29.93,4,0,0,0.00
2014-6-21,69,60,54,52,50,49,85,71,53,29.94,29.88,5,1,0,0.00
2014-6-22,69,60,53,53,50,49,86,73,53,29.94,29.88,4,1,0,0.00
2014-6-23,74,63,54,54,51,48,88,68,48,29.96,29.91,4,1,0,0.00
2014-6-24,78,66,53,56,52,48,84,65,43,29.99,29.94,9,1,0,0.00
2014-6-25,68,61,56,58,56,53,92,84,66,30.00,29.94,4,1,0,0.00
2014-6-26,69,63,57,57,56,54,94,79,61,30.00,29.95,5,0,0,0.00
2014-6-27,72,64,57,60,57,55,93,80,60,30.00,29.93,3,0,0,0.00
2014-6-28,81,66,57,56,54,48,93,68,36,29.95,29.89,6,1,0,0.00
2014-6-29,82,68,54,56,53,50,90,63,33,29.93,29.83,4,0,0,0.00
2014-6-30,79,64,55,58,55,53,92,73,46,29.84,29.82,4,0,0,0.00
2014-7-1,69,60,56,56,55,53,94,84,63,29.86,29.80,6,0,0,0.00
2014-7-2,71,62,55,56,54,53,92,78,58,29.90,29.83,6,1,0,0.00
2014-7-3,72,62,56,55,53,52,87,74,54,29.94,29.88,5,1,0,0.00
2014-7-4,69,60,55,55,53,52,92,78,59,30.00,29.89,4,0,0,0.00
2014-7-5,71,61,54,55,53,51,92,76,56,30.08,30.00,3,0,0,0.00
2014-7-6,72,62,54,56,54,52,94,77,57,30.05,29.95,3,0,0,0.00
2014-7-7,71,61,56,56,54,53,91,80,59,29.95,29.85,3,0,0,0.00
2014-7-8,69,61,56,56,55,54,92,81,63,29.94,29.85,5,0,0,0.00
2014-7-9,70,62,57,57,55,54,92,80,61,29.96,29.89,4,0,0,0.00
2014-7-10,72,64,59,57,56,55,90,78,59,29.95,29.89,4,0,0,0.00
2014-7-11,72,63,59,57,55,54,90,76,55,30.08,29.94,4,0,0,0.00
2014-7-12,70,63,57,57,55,54,89,77,61,30.09,30.03,5,1,0,0.00
2014-7-13,75,64,56,58,56,54,93,77,56,30.04,29.89,5,0,0,0.00
2014-7-14,74,63,56,59,56,54,95,78,54,29.95,29.85,2,0,0,0.00
2014-7-15,77,65,57,62,58,55,94,82,58,30.01,29.93,4,0,0,0.00
2014-7-16,74,65,61,60,58,57,93,81,59,30.03,29.98,4,1,0,0.00
2014-7-17,69,63,60,59,58,56,93,82,67,30.02,29.97,3,0,0,0.00
2014-7-18,72,64,60,58,57,56,91,79,59,30.02,29.96,4,0,0,0.00
2014-7-19,72,64,60,59,58,57,91,81,62,29.97,29.94,5,1,0,0.00
2014-7-20,72,64,60,60,58,57,93,83,64,30.00,29.92,6,0,0,0.00
2014-7-21,75,66,62,61,59,57,90,78,56,30.08,29.97,3,0,0,0.00
2014-7-22,76,67,61,61,58,56,92,77,54,30.11,30.00,3,0,0,0.00
2014-7-23,77,69,63,62,60,58,88,75,57,30.14,30.04,4,0,0,0.00
2014-7-24,85,70,61,61,58,55,92,69,40,30.05,29.85,3,0,0,0.00
2014-7-25,86,70,58,62,57,55,95,69,37,29.89,29.84,2,0,0,0.00
2014-7-26,75,65,57,61,57,55,96,77,56,29.96,29.88,4,0,0,0.00
2014-7-27,76,65,59,59,57,56,91,77,54,30.02,29.93,2,0,0,0.00
2014-7-28,72,64,59,58,57,56,90,79,62,30.06,29.99,4,0,0,0.00
2014-7-29,75,65,59,59,57,56,92,77,54,30.05,29.99,4,0,0,0.00
2014-7-30,74,64,58,59,57,56,93,80,57,30.02,29.95,2,0,0,0.00
2014-7-31,72,63,58,59,57,55,93,80,59,29.99,29.90,4,0,0,0.00
2014-8-1,73,64,56,60,57,54,95,80,58,29.94,29.88,3,0,0,0.00
2014-8-2,69,62,58,57,56,55,92,82,64,29.96,29.89,6,0,0,0.00
2014-8-3,68,61,58,56,55,55,92,83,64,29.97,29.93,2,0,0,0.00
2014-8-4,74,62,58,59,57,55,93,82,59,30.00,29.94,3,0,0,0.00
2014-8-5,76,68,60,61,59,57,92,80,57,30.07,30.00,2,0,0,0.00
2014-8-6,77,67,60,64,60,56,93,78,56,30.03,29.97,3,0,0,0.00
2014-8-7,70,63,59,58,56,55,90,79,63,29.98,29.91,3,0,0,0.00
2014-8-8,74,64,59,57,55,53,86,74,56,29.93,29.88,2,0,0,0.01
2014-8-9,65,59,57,55,54,53,89,82,69,29.98,29.89,4,1,0,0.00
2014-8-10,72,63,57,58,56,54,90,79,59,30.00,29.94,4,1,0,0.00
2014-8-11,73,65,60,58,57,56,88,76,57,29.96,29.91,4,0,0,0.00
2014-8-12,73,65,60,57,56,54,87,74,54,30.00,29.93,5,1,0,0.00
2014-8-13,73,65,59,58,56,54,87,75,56,30.02,29.92,2,0,0,0.00
2014-8-14,73,63,58,58,57,55,92,81,57,29.98,29.92,3,0,0,0.00
2014-8-15,73,64,58,58,57,56,93,81,57,30.02,29.94,2,0,0,0.00
2014-8-16,73,64,59,59,57,56,92,80,60,30.05,29.99,3,0,0,0.00
2014-8-17,72,63,58,58,56,55,91,80,62,30.03,29.93,4,0,0,0.00
2014-8-18,66,60,58,58,56,56,93,87,72,29.92,29.82,4,1,0,0.00
2014-8-19,72,63,58,60,58,56,94,83,64,29.86,29.82,3,1,0,0.00
2014-8-20,70,64,61,60,58,56,89,81,66,29.94,29.85,4,0,0,0.00
2014-8-21,75,65,60,60,58,57,91,79,58,29.96,29.90,4,0,0,0.00
2014-8-22,73,64,60,59,58,56,92,81,63,29.95,29.91,5,1,0,0.00
2014-8-23,75,65,59,58,56,54,87,73,54,29.96,29.88,2,0,0,0.00
2014-8-24,73,65,60,57,56,54,87,75,57,29.91,29.83,3,0,0,0.00
2014-8-25,72,64,61,57,56,54,82,74,56,29.95,29.84,4,0,0,0.00
2014-8-26,74,66,60,58,56,55,87,73,53,30.02,29.95,4,0,0,0.00
2014-8-27,78,66,59,60,58,56,92,77,52,30.07,30.00,2,0,0,0.00
2014-8-28,74,64,59,60,58,56,91,81,59,30.07,29.95,4,0,0,0.00
2014-8-29,75,64,59,61,58,57,92,82,59,29.97,29.88,4,0,0,0.00
2014-8-30,80,68,58,62,59,56,96,74,51,29.92,29.86,4,0,0,0.00
2014-8-31,79,67,60,60,58,55,92,74,51,29.93,29.85,2,0,0,0.00
2014-9-1,82,68,56,60,57,54,94,72,41,29.85,29.77,2,0,0,0.00
2014-9-2,67,62,58,59,57,56,94,86,73,29.86,29.79,5,0,0,0.00
2014-9-3,75,65,60,59,58,57,89,79,55,29.80,29.72,4,0,0,0.00
2014-9-4,72,64,60,59,57,56,88,80,62,29.80,29.71,5,0,0,0.00
2014-9-5,72,63,59,58,56,55,89,78,59,29.92,29.80,4,0,0,0.00
2014-9-6,73,63,58,57,55,54,89,75,53,29.97,29.89,3,0,0,0.00
2014-9-7,72,62,55,55,54,52,91,76,55,29.91,29.81,4,0,0,0.00
2014-9-8,68,61,57,54,52,51,85,75,57,29.94,29.85,6,1,0,0.00
2014-9-9,73,63,57,57,55,53,90,76,56,29.99,29.91,3,0,0,0.00
2014-9-10,83,65,55,60,57,53,95,78,44,29.94,29.84,3,0,0,0.00
2014-9-11,83,65,56,61,58,54,96,80,44,29.91,29.83,4,0,0,0.00
2014-9-12,77,65,57,59,58,55,95,79,53,29.90,29.80,1,0,0,0.00
2014-9-13,76,64,60,59,58,56,93,81,54,29.86,29.80,3,0,0,0.00
2014-9-14,75,65,58,58,57,55,92,77,50,29.88,29.80,2,0,0,0.00
2014-9-15,76,66,60,59,58,56,92,76,51,29.93,29.84,3,0,0,0.00
2014-9-16,80,67,57,61,58,55,96,77,48,29.94,29.81,3,0,0,0.00
2014-9-17,77,68,62,65,59,57,88,73,51,29.83,29.77,4,0,0,0.00
2014-9-18,77,70,64,66,64,62,93,82,62,29.89,29.77,2,0,0,0.09
2014-9-19,73,66,63,63,61,60,92,85,68,29.92,29.86,5,0,0,0.00
2014-9-20,68,64,62,61,60,59,92,85,75,29.95,29.88,5,0,0,0.00
2014-9-21,73,66,63,62,60,58,87,81,65,30.02,29.93,6,0,0,0.00
2014-9-22,77,67,60,60,58,56,88,74,53,30.03,29.95,3,0,0,0.00
2014-9-23,77,66,57,64,60,55,96,81,59,30.01,29.92,3,0,0,0.00
2014-9-24,78,69,64,64,63,61,95,82,59,29.97,29.88,4,0,0,0.04
2014-9-25,75,65,58,61,58,56,96,81,53,30.02,29.89,1,0,0,0.49
2014-9-26,75,65,56,61,57,52,96,76,47,30.00,29.91,4,0,0,0.00
2014-9-27,75,64,56,59,56,53,95,76,52,29.92,29.83,5,0,0,0.00
2014-9-28,73,64,59,60,57,56,92,78,60,29.96,29.81,3,0,0,0.00
2014-9-29,70,62,58,58,58,56,95,84,65,30.04,29.95,11,0,0,0.00
2014-9-30,74,64,58,59,57,56,94,79,56,29.97,29.84,4,0,0,0.00
2014-10-1,88,69,55,56,44,34,91,48,16,29.93,29.84,3,0,0,0.00
2014-10-2,93,73,55,49,42,31,69,38,15,30.03,29.93,5,0,0,0.00
2014-10-3,99,76,59,52,43,31,67,36,10,30.09,29.99,2,0,0,0.00
2014-10-4,92,73,60,56,46,36,82,43,19,30.04,29.92,1,0,0,0.00
2014-10-5,87,68,56,58,51,40,92,59,28,29.95,29.88,1,0,0,0.00
2014-10-6,82,65,54,62,57,53,96,79,45,29.93,29.85,1,0,0,0.00
2014-10-7,75,62,55,59,56,54,95,82,53,29.93,29.86,2,0,0,0.00
2014-10-8,75,62,53,61,56,52,97,82,52,29.92,29.86,2,0,0,0.00
2014-10-9,70,61,56,57,56,54,95,84,63,29.99,29.90,2,0,0,0.00
2014-10-10,69,61,57,56,55,54,91,81,62,30.06,29.99,3,0,0,0.00
2014-10-11,75,63,56,57,55,53,92,78,49,30.05,29.96,4,0,0,0.00
2014-10-12,90,69,54,60,49,31,95,58,16,29.98,29.88,1,0,0,0.00
2014-10-13,82,65,57,58,46,29,91,54,20,29.96,29.90,1,0,0,0.00
2014-10-14,71,64,58,58,56,54,92,77,56,29.95,29.82,11,1,0,0.00
2014-10-15,73,64,56,59,57,54,93,79,56,30.02,29.85,5,0,0,0.16
2014-10-16,73,60,52,58,52,43,95,78,37,30.03,29.93,4,0,0,0.00
2014-10-17,76,63,52,57,51,47,92,69,40,29.97,29.91,2,0,0,0.00
2014-10-18,80,66,58,61,56,53,92,73,39,29.98,29.88,2,0,0,0.00
2014-10-19,75,64,57,62,58,55,96,84,60,29.92,29.86,4,0,0,0.00
2014-10-20,70,63,55,60,57,52,91,81,64,30.05,29.89,4,0,0,0.02
2014-10-21,74,60,51,54,49,41,94,71,30,30.10,30.00,2,0,0,0.00
2014-10-22,75,62,51,59,53,47,89,75,45,30.07,30.01,1,0,0,0.00
2014-10-23,76,63,57,60,57,54,96,82,52,30.06,29.96,2,0,0,0.00
2014-10-24,73,65,59,59,54,51,78,70,52,29.96,29.88,6,0,0,0.00
2014-10-25,71,64,57,60,57,53,94,79,61,30.14,29.88,7,1,0,0.29
2014-10-26,73,60,51,55,49,40,95,71,31,30.16,30.04,2,0,0,0.01
2014-10-27,71,59,49,51,48,46,90,70,42,30.06,30.00,2,0,0,0.00
2014-10-28,74,60,50,52,49,47,92,69,38,30.11,30.04,2,0,0,0.00
2014-10-29,85,66,53,55,50,43,93,63,24,30.11,29.97,4,0,0,0.00
2014-10-30,73,62,57,59,54,49,90,75,51,29.97,29.88,2,0,0,0.00
2014-10-31,62,59,54,59,55,52,95,88,78,29.89,29.71,2,0,0,0.30
2014-11-1,67,56,50,54,49,46,95,80,51,30.02,29.71,3,0,0,0.00
2014-11-2,70,56,47,52,46,40,95,73,36,30.17,30.02,2,0,0,0.00
2014-11-3,71,57,48,53,47,38,92,73,31,30.25,30.15,2,0,0,0.00
2014-11-4,75,60,50,56,49,42,96,72,32,30.31,30.22,2,0,0,0.01
2014-11-5,80,63,51,50,46,44,85,58,28,30.23,30.07,6,0,0,0.00
2014-11-6,76,62,53,57,52,49,91,73,45,30.21,30.13,1,0,0,0.00
2014-11-7,71,59,53,60,55,52,96,86,63,30.22,30.09,1,0,0,0.00
2014-11-8,82,64,53,61,52,46,98,70,30,30.11,30.00,3,0,0,0.01
2014-11-9,74,60,52,57,54,50,95,82,54,30.02,29.82,1,0,0,0.00
2014-11-10,62,57,52,59,54,51,96,90,78,29.84,29.79,2,0,0,0.01
2014-11-11,66,60,56,55,51,48,87,73,55,29.96,29.83,5,0,0,0.00
2014-11-12,67,60,56,52,48,45,82,65,46,30.02,29.95,3,0,0,0.02
2014-11-13,67,60,55,62,57,53,96,91,75,30.07,29.91,3,0,0,0.10
2014-11-14,68,58,51,59,53,49,97,85,65,30.09,30.04,2,0,0,0.01
2014-11-15,69,57,49,55,50,48,96,79,50,30.18,30.07,2,0,0,0.01
2014-11-16,64,57,50,50,31,20,87,42,19,30.24,30.16,4,0,0,0.00
2014-11-17,68,59,54,39,30,20,55,35,21,30.23,30.08,9,1,0,0.00
2014-11-18,67,59,54,43,40,34,60,51,37,30.12,30.03,6,1,0,0.00
2014-11-19,60,56,53,58,49,35,96,79,40,30.12,29.97,5,0,0,0.24
2014-11-20,58,54,51,56,53,50,97,96,93,30.11,29.93,2,0,0,0.55
2014-11-21,64,56,50,54,52,49,97,85,64,30.11,30.01,2,0,0,0.00
2014-11-22,70,59,49,63,54,46,97,82,60,30.24,30.03,5,0,0,0.27
2014-11-23,68,55,46,47,43,38,91,67,35,30.33,30.22,2,0,0,0.00
2014-11-24,70,54,43,47,41,39,88,66,35,30.40,30.30,2,0,0,0.00
2014-11-25,69,57,46,48,43,38,77,61,44,30.45,30.32,6,0,0,0.00
2014-11-26,72,58,50,50,47,44,88,69,41,30.31,30.18,3,0,0,0.00
2014-11-27,70,56,47,53,49,45,94,79,51,30.18,30.05,1,0,0,0.00
2014-11-28,66,55,48,55,51,46,97,85,57,30.06,29.84,2,0,0,0.06
2014-11-29,64,59,55,57,56,53,94,88,75,29.85,29.73,5,0,0,0.15
2014-11-30,62,56,51,57,53,50,96,89,70,30.01,29.72,3,0,0,0.51
2014-12-1,70,60,54,58,55,52,97,85,59,30.10,29.93,4,0,0,0.00
2014-12-2,62,57,55,58,55,52,95,90,80,29.93,29.66,9,1,0,1.24
2014-12-3,65,60,58,61,58,56,96,91,77,29.87,29.68,10,1,0,1.62
2014-12-4,69,60,55,60,57,54,96,90,66,30.01,29.86,4,0,0,0.18
2014-12-5,68,61,55,60,57,54,97,87,65,30.07,29.96,5,1,0,0.15
2014-12-6,69,61,57,61,58,55,96,90,69,30.20,30.06,3,0,0,0.34
2014-12-7,64,58,55,58,55,53,96,89,76,30.20,30.10,3,0,0,0.00
2014-12-8,71,60,54,58,55,53,96,87,59,30.17,30.11,1,0,0,0.01
2014-12-9,65,59,54,59,56,52,96,90,74,30.20,30.06,1,0,0,0.00
2014-12-10,65,60,54,56,55,52,96,84,70,30.05,29.68,6,1,0,0.01
2014-12-11,64,56,49,57,53,48,97,89,67,29.69,29.48,11,2,0,2.89
2014-12-12,50,47,48,49,46,47,97,93,96,29.80,29.63,1,0,0,0.00